K5LLL-13 Weather Reports


time (UTC)temp
F
wind
direction
speed
knots
gust
knots
rain 1hr
in
rain 24hr
in
rain mn
in
humidity
%
barometer
mb
20260509213016 83 315 1.7 4.3 0.00 0.01 0.01 75 1009.3
20260509212017 83 315 1.7 5.2 0.00 0.01 0.01 74 1009.3
20260509211017 84 315 1.7 4.3 0.00 0.01 0.01 72 1009.5
20260509210036 84 315 0.9 3.5 0.00 0.01 0.01 71 1009.4
20260509205016 85 315 0.9 4.3 0.00 0.01 0.01 71 1009.6
20260509204016 85 315 2.6 5.2 0.00 0.01 0.01 69 1009.8
20260509203016 86 315 1.7 4.3 0.00 0.01 0.01 67 1009.6
20260509202017 86 293 0.9 2.6 0.00 0.01 0.01 66 1010.0
20260509201017 87 225 0.9 3.5 0.00 0.01 0.01 63 1010.2
20260509200016 88 270 3.5 5.2 0.00 0.01 0.01 64 1010.4
20260509195017 87 293 3.5 7.8 0.00 0.01 0.01 65 1010.3
20260509194016 87 270 3.5 7.0 0.00 0.01 0.01 65 1010.3
20260509193016 87 270 0.9 3.5 0.00 0.01 0.01 66 1010.2
20260509192017 87 270 1.7 5.2 0.00 0.01 0.01 65 1010.4
20260509191016 86 248 1.7 4.3 0.00 0.01 0.01 67 1010.5
20260509190017 86 225 1.7 4.3 0.00 0.01 0.01 66 1010.9
20260509185016 85 248 2.6 7.0 0.00 0.01 0.01 69 1011.2
20260509184016 85 0.0 0.9 0.00 0.01 0.01 71 1011.3
20260509183037 84 0.0 0.9 0.00 0.01 0.01 73 1011.5
20260509182017 84 248 0.9 3.5 0.00 0.01 0.01 73 1011.6
20260509181016 84 270 1.7 3.5 0.00 0.01 0.01 74 1011.6
20260509180016 84 293 1.7 7.0 0.00 0.01 0.01 73 1011.7
20260509175016 83 0.0 1.7 0.00 0.01 0.01 76 1011.8
20260509174016 82 293 1.7 4.3 0.00 0.01 0.01 78 1012.0
20260509173016 82 293 2.6 7.8 0.00 0.01 0.01 78 1012.3
20260509172016 81 315 1.7 5.2 0.00 0.01 0.01 80 1012.3
20260509171017 82 338 1.7 5.2 0.00 0.01 0.01 80 1012.2
20260509170016 81 270 3.5 6.1 0.00 0.01 0.01 80 1012.2
20260509165016 81 248 2.6 7.8 0.00 0.01 0.01 83 1012.1
20260509164016 81 203 1.7 6.1 0.00 0.01 0.01 84 1012.0
20260509163016 80 225 4.3 8.7 0.00 0.01 0.01 84 1011.7
20260509162016 79 225 4.3 10.4 0.00 0.01 0.01 85 1011.7
20260509161016 78 203 6.1 12.2 0.00 0.01 0.01 86 1011.8
20260509160016 78 180 5.2 9.6 0.00 0.01 0.01 88 1011.9
20260509155016 78 203 4.3 7.8 0.00 0.01 0.01 89 1012.0
20260509154016 78 180 1.7 7.0 0.00 0.01 0.01 90 1012.1
20260509153016 77 203 4.3 7.8 0.00 0.01 0.01 91 1011.9
20260509152016 76 225 2.6 6.1 0.00 0.01 0.01 92 1011.9
20260509151016 76 203 4.3 7.8 0.00 0.01 0.01 94 1011.8
20260509150016 75 158 4.3 7.0 0.00 0.01 0.01 96 1011.7
20260509145016 74 180 3.5 7.8 0.00 0.01 0.01 98 1011.5
20260509144016 74 135 2.6 7.8 0.00 0.01 0.01 99 1011.6
20260509143016 74 158 2.6 7.0 0.00 0.01 0.01 99 1011.6
20260509142017 73 135 0.9 3.5 0.00 0.01 0.01 99 1011.5
20260509141016 73 0.0 0.9 0.00 0.01 0.01 99 1011.6
20260509140016 73 135 0.9 2.6 0.00 0.01 0.01 99 1011.6
20260509135016 73 135 1.7 5.2 0.00 0.01 0.01 99 1011.6
20260509134016 73 158 1.7 4.3 0.00 0.01 0.01 99 1012.0
20260509133016 73 203 0.9 2.6 0.00 0.01 0.01 99 1011.7
20260509132036 73 135 2.6 6.1 0.00 0.01 0.01 99 1011.7
20260509131016 72 135 1.7 4.3 0.00 0.01 0.01 99 1011.5
20260509130016 72 135 0.9 2.6 0.00 0.01 0.01 99 1011.5
20260509125016 72 0.0 1.7 0.01 0.01 0.01 99 1011.5
20260509124016 72 0.0 0.9 0.01 0.01 0.01 99 1011.4
20260509123016 72 0.0 0.0 0.01 0.01 0.01 99 1011.5
20260509122016 72 0.0 1.7 0.01 0.01 0.01 99 1011.3
20260509121015 72 0.0 0.9 0.01 0.01 0.01 99 1011.5
20260509120016 72 0.0 2.6 0.01 0.01 0.01 99 1011.3
20260509115015 72 338 0.9 3.5 0.00 0.00 0.00 99 1011.4
20260509114015 72 0.0 2.6 0.00 0.00 0.00 99 1011.3
20260509113016 72 315 0.9 2.6 0.00 0.00 0.00 99 1011.4
20260509112016 72 0.0 1.7 0.00 0.00 0.00 99 1011.6
20260509111015 72 0.0 1.7 0.00 0.00 0.00 99 1012.2
20260509110016 72 0.0 0.9 0.00 0.00 0.00 99 1012.2
20260509105016 72 203 0.9 2.6 0.00 0.00 0.00 99 1011.8
20260509104015 72 0.0 0.9 0.00 0.00 0.00 99 1011.9
20260509103015 72 0.0 0.9 0.00 0.00 0.00 99 1012.4
20260509102036 72 23 0.9 2.6 0.00 0.00 0.00 99 1012.4
20260509101017 72 0.0 0.9 0.00 0.00 0.00 99 1011.8
20260509100015 72 0.0 0.9 0.00 0.00 0.00 98 1011.2
20260509095055 72 0.0 0.0 0.00 0.00 0.00 98 1011.1
20260509094015 72 0.0 0.9 0.00 0.00 0.00 98 1011.1
20260509093015 72 0.0 0.9 0.00 0.00 0.00 98 1011.0
20260509092015 72 0.0 0.9 0.00 0.00 0.00 98 1010.9
20260509091015 72 0.0 0.9 0.00 0.00 0.00 98 1010.8
20260509090015 72 0.0 0.9 0.00 0.00 0.00 98 1011.1
20260509085035 72 0.0 0.0 0.00 0.00 0.00 98 1011.4
20260509084015 72 0.0 0.0 0.00 0.00 0.00 98 1011.4
20260509083015 72 0.0 0.0 0.00 0.00 0.00 97 1011.6
20260509082016 72 0.0 0.0 0.00 0.00 0.00 97 1011.8
20260509081015 72 0.0 1.7 0.00 0.00 0.00 97 1011.6
20260509080015 73 45 0.9 2.6 0.00 0.00 0.00 97 1011.8
20260509075035 72 0.0 0.0 0.00 0.00 0.00 97 1012.0
20260509074015 73 0.0 0.0 0.00 0.00 0.00 97 1011.8
20260509073015 72 0.0 0.9 0.00 0.00 0.00 97 1011.5
20260509072015 73 113 0.9 4.3 0.00 0.00 0.00 97 1011.6
20260509071015 73 158 0.9 3.5 0.00 0.00 0.00 97 1011.5
20260509070019 73 135 1.7 5.2 0.00 0.00 0.00 97 1011.4
20260509065017 73 135 1.7 5.2 0.00 0.00 0.00 97 1011.5
20260509064015 73 158 3.5 7.8 0.00 0.00 0.00 97 1011.5
20260509063017 73 135 2.6 6.1 0.00 0.00 0.00 96 1011.6
20260509062017 73 135 1.7 5.2 0.00 0.00 0.00 96 1011.3
20260509061037 73 135 2.6 7.8 0.00 0.00 0.00 96 1011.4
20260509060037 73 135 4.3 10.4 0.00 0.00 0.00 96 1011.6
20260509055017 73 135 3.5 8.7 0.00 0.00 0.00 96 1011.5
20260509054017 73 135 2.6 7.0 0.00 0.00 0.00 95 1011.5
20260509053017 73 135 3.5 7.0 0.00 0.00 0.00 95 1011.1
20260509052037 73 135 6.1 11.3 0.00 0.00 0.00 95 1011.2
20260509051017 73 135 6.1 11.3 0.00 0.00 0.00 94 1011.0
20260509050037 73 135 7.0 11.3 0.00 0.00 0.00 94 1011.1
20260509045015 73 135 1.7 5.2 0.00 0.00 0.00 94 1011.3
20260509044015 73 135 5.2 10.4 0.00 0.00 0.00 93 1011.0
20260509043015 73 135 5.2 10.4 0.00 0.00 0.00 93 1011.0
20260509042015 73 135 2.6 7.8 0.00 0.00 0.00 93 1011.2
20260509041036 73 135 1.7 5.2 0.00 0.00 0.00 93 1011.3
20260509040015 73 113 1.7 6.1 0.00 0.00 0.00 93 1011.1
20260509035015 74 113 1.7 4.3 0.00 0.00 0.00 92 1011.1
20260509034015 74 113 1.7 4.3 0.00 0.00 0.00 91 1010.8
20260509033035 74 113 0.9 4.3 0.00 0.00 0.00 91 1011.1
20260509032035 74 135 1.7 5.2 0.00 0.00 0.00 91 1010.9
20260509031015 74 113 3.5 7.8 0.00 0.00 0.00 90 1010.8
20260509030015 74 113 2.6 6.1 0.00 0.00 0.00 90 1010.7
20260509025015 74 113 1.7 6.1 0.00 0.00 0.00 90 1010.7
20260509024015 74 113 1.7 6.1 0.00 0.00 0.00 90 1010.6
20260509023015 74 90 0.9 3.5 0.00 0.00 0.00 89 1010.5
20260509022017 75 0.0 1.7 0.00 0.00 0.00 89 1010.4
20260509021017 75 0.0 0.9 0.00 0.00 0.00 89 1010.2
20260509020037 75 0.0 1.7 0.00 0.00 0.00 89 1009.9
20260509015017 75 0.0 0.9 0.00 0.00 0.00 88 1010.1
20260509014037 75 0.0 0.9 0.00 0.00 0.00 87 1010.1
20260509013017 75 0.0 0.9 0.00 0.00 0.00 87 1010.0
20260509012018 76 0.0 0.9 0.00 0.00 0.00 86 1010.1
20260509011017 76 0.0 1.7 0.00 0.00 0.00 86 1010.2
20260509010017 76 0.0 2.6 0.00 0.00 0.00 85 1009.9
20260509005017 76 90 2.6 6.1 0.00 0.00 0.00 85 1009.9
20260509004017 77 113 0.9 3.5 0.00 0.00 0.00 84 1009.9
20260509003017 77 68 0.9 2.6 0.00 0.00 0.00 84 1009.9
20260509002037 77 90 0.9 4.3 0.00 0.00 0.00 83 1009.9
20260509001017 77 113 1.7 4.3 0.00 0.00 0.00 83 1009.9
20260509000017 77 113 1.7 5.2 0.00 0.00 0.00 82 1010.0
20260508235017 78 90 0.9 5.2 0.00 0.00 0.00 81 1010.0
20260508234017 78 113 0.9 2.6 0.00 0.00 0.00 81 1010.0
20260508233037 78 90 1.7 5.2 0.00 0.00 0.00 80 1009.9
20260508232017 78 90 0.9 2.6 0.00 0.00 0.00 81 1009.9
20260508231017 78 113 2.6 6.1 0.00 0.00 0.00 81 1010.0
20260508230017 78 135 2.6 6.1 0.00 0.00 0.00 81 1010.1
20260508225017 78 113 0.9 3.5 0.00 0.00 0.00 82 1010.0
20260508224017 78 90 1.7 7.0 0.00 0.00 0.00 81 1009.8
20260508223016 78 90 2.6 7.8 0.00 0.00 0.00 81 1009.8
20260508222017 77 113 2.6 7.0 0.00 0.00 0.00 82 1009.9
20260508221017 77 90 1.7 4.3 0.00 0.00 0.00 81 1010.3
20260508220017 78 113 1.7 7.0 0.00 0.00 0.00 79 1010.4
20260508215017 78 90 3.5 9.6 0.00 0.00 0.00 79 1010.3
20260508214017 78 90 1.7 7.0 0.00 0.00 0.00 79 1010.4